EW3533 Weather Reports


Display with metric or nautical units.
time (UTC)temp
F
wind
direction
speed
MPH
gust
MPH
rain 1hr
in
rain 24hr
in
rain mn
in
humidity
%
barometer
mb
20260904194622 79 227 2.0 9.0 0.00 0.13 0.02 80 1012.6
20260904193043 79 221 2.0 5.0 0.00 0.13 0.02 82 1012.6
20260904191537 78 198 0.0 3.0 0.00 0.13 0.02 83 1012.8
20260904190041 78 196 1.0 4.0 0.00 0.13 0.02 84 1012.7
20260904184532 77 190 2.0 4.0 0.00 0.66 0.02 84 1012.7
20260904183030 77 190 0.0 2.0 0.00 0.66 0.02 87 1012.8
20260904181527 76 190 1.0 3.0 0.00 0.66 0.02 88 1013.0
20260904180025 75 190 0.0 2.0 0.00 0.66 0.02 90 1013.0
20260904174523 75 190 0.0 2.0 0.00 0.67 0.02 92 1013.0
20260904173030 74 190 1.0 3.0 0.00 0.67 0.02 93 1013.0
20260904171525 73 190 0.0 3.0 0.00 0.67 0.02 94 1013.2
20260904170015 73 191 1.0 4.0 0.00 0.67 0.02 94 1013.2
20260904164511 73 196 1.0 4.0 0.00 0.68 0.02 95 1013.2
20260904163011 72 199 1.0 3.0 0.00 0.68 0.02 95 1013.3
20260904161509 72 202 1.0 3.0 0.00 0.68 0.02 95 1013.8
20260904160005 72 148 1.0 5.0 0.00 0.68 0.02 95 1014.3
20260904154503 72 147 1.0 3.0 0.00 0.68 0.02 95 1014.3
20260904153003 71 146 0.0 2.0 0.00 0.68 0.02 95 1014.2
20260904151610 71 146 0.0 2.0 0.00 0.68 0.02 95 1014.3
20260904150057 70 146 0.0 4.0 0.00 0.68 0.02 95 1014.5
20260904144555 70 137 1.0 3.0 0.00 0.68 0.02 95 1014.3
20260904143053 69 137 0.0 3.0 0.01 0.68 0.02 95 1014.3
20260904141616 69 136 2.0 4.0 0.01 0.68 0.02 95 1014.1
20260904140103 68 205 3.0 5.0 0.01 0.68 0.02 95 1013.8
20260904134556 68 211 1.0 4.0 0.01 0.68 0.02 95 1014.4
20260904133106 68 212 0.0 4.0 0.00 0.67 0.01 95 1014.7
20260904131600 68 212 0.0 1.0 0.00 0.67 0.01 95 1014.7
20260904130048 68 212 0.0 3.0 0.01 0.67 0.01 95 1015.0
20260904124546 67 212 0.0 3.0 0.01 0.67 0.01 95 1015.0
20260904123045 68 212 1.0 3.0 0.01 0.67 0.01 95 1014.5
20260904121544 68 212 0.0 6.0 0.01 0.67 0.01 95 1014.4
20260904120046 68 212 2.0 4.0 0.00 0.66 0.00 95 1014.7
20260904114542 68 208 4.0 6.0 0.00 0.66 0.00 95 1014.5
20260904113043 68 186 0.0 1.0 0.00 0.66 0.00 95 1013.9
20260904111541 68 186 1.0 3.0 0.00 0.66 0.00 95 1013.2
20260904110041 68 186 1.0 3.0 0.00 0.66 0.00 95 1013.2
20260904104541 68 186 0.0 2.0 0.00 0.66 0.00 95 1013.1
20260904103048 68 186 1.0 3.0 0.00 0.66 0.00 95 1012.8
20260904101540 68 186 1.0 2.0 0.00 0.66 0.00 95 1013.1
20260904100038 67 186 0.0 1.0 0.00 0.66 0.00 95 1013.3
20260904094536 67 186 0.0 3.0 0.00 0.66 0.00 95 1013.0
20260904093034 67 186 1.0 3.0 0.00 0.66 0.00 95 1013.1
20260904091538 67 186 2.0 4.0 0.00 0.66 0.00 95 1013.2
20260904090034 67 210 2.0 3.0 0.00 0.66 0.00 95 1013.4
20260904084531 68 210 0.0 2.0 0.00 0.66 0.00 95 1013.6
20260904083031 68 210 1.0 3.0 0.00 0.66 0.00 95 1013.4
20260904081530 68 211 2.0 3.0 0.00 0.66 0.00 95 1013.2
20260904080038 68 211 1.0 2.0 0.00 0.66 0.00 95 1013.5
20260904074531 68 211 0.0 2.0 0.00 0.66 0.00 95 1013.7
20260904073034 68 211 0.0 2.0 0.00 0.66 0.00 94 1013.9
20260904071524 68 211 2.0 4.0 0.00 0.66 0.00 94 1013.4
20260904070023 67 225 0.0 2.0 0.00 0.66 0.00 94 1013.8
20260904064521 67 225 2.0 3.0 0.00 0.66 0.00 94 1013.8
20260904063019 68 226 0.0 1.0 0.00 0.66 0.00 94 1014.3
20260904061523 68 226 0.0 2.0 0.00 0.66 0.00 94 1014.3
20260904060017 68 226 0.0 2.0 0.00 0.66 0.00 94 1014.5
20260904054517 68 226 0.0 1.0 0.00 0.66 0.00 94 1014.4
20260904053018 68 226 0.0 2.0 0.00 0.66 0.00 94 1014.3
20260904051527 68 226 1.0 2.0 0.00 0.66 0.00 94 1014.2
20260904050014 68 226 0.0 2.0 0.00 0.66 0.00 94 1014.4
20260904044519 68 226 1.0 2.0 0.00 0.66 0.00 94 1014.3
20260904043013 68 227 0.0 2.0 0.00 0.66 0.00 94 1014.2
20260904041518 68 227 0.0 0.0 0.00 0.66 0.00 94 1014.5
20260904040010 68 227 0.0 2.0 0.00 0.66 0.00 94 1014.4
20260904034509 69 227 0.0 3.0 0.00 0.66 0.66 94 1014.3
20260904033008 70 226 0.0 2.0 0.00 0.66 0.66 94 1014.3
20260904031508 70 226 0.0 1.0 0.00 0.66 0.66 94 1014.2
20260904030007 70 226 0.0 3.0 0.00 0.66 0.66 94 1014.3
20260904024510 70 226 0.0 2.0 0.00 0.66 0.66 94 1014.0
20260904023006 69 226 0.0 3.0 0.00 0.66 0.66 94 1014.2
20260904021509 69 226 0.0 0.0 0.00 0.66 0.66 94 1014.0
20260904020005 70 226 0.0 0.0 0.00 0.66 0.66 94 1013.7
20260904014505 70 226 0.0 0.0 0.00 0.66 0.66 94 1014.0
20260904013005 71 226 1.0 5.0 0.00 0.66 0.66 94 1014.0
20260904011505 69 178 1.0 3.0 0.00 0.66 0.66 94 1013.8
20260904010104 69 178 0.0 1.0 0.00 0.66 0.66 93 1013.3
20260904004505 69 178 0.0 0.0 0.00 0.66 0.66 93 1013.2
20260904003003 70 178 0.0 0.0 0.00 0.66 0.66 93 1013.1
20260904001501 71 178 0.0 0.0 0.00 0.66 0.66 93 1012.8
20260904000001 71 178 0.0 2.0 0.00 0.66 0.66 94 1012.7
20260903234600 72 178 1.0 2.0 0.00 0.66 0.66 93 1012.8
20260903233059 72 178 0.0 3.0 0.00 0.66 0.66 94 1012.8
20260903231611 72 178 0.0 4.0 0.00 0.66 0.66 94 1012.5
20260903230111 72 163 0.0 1.0 0.00 0.66 0.66 94 1012.4
20260903224556 73 163 0.0 2.0 0.00 0.66 0.66 94 1012.3
20260903223106 72 163 0.0 1.0 0.00 0.66 0.66 94 1012.6
20260903221556 72 163 0.0 2.0 0.00 0.66 0.66 94 1012.6
20260903220105 73 163 1.0 5.0 0.00 0.66 0.66 94 1012.1
20260903214555 72 143 0.0 2.0 0.00 0.87 0.66 94 1011.4
20260903213056 73 143 1.0 4.0 0.00 0.87 0.66 94 1011.3
20260903211554 72 140 1.0 4.0 0.01 0.87 0.66 94 1011.2
20260903210054 72 141 3.0 5.0 0.03 0.87 0.66 94 1011.8
20260903204600 71 61 1.0 4.0 0.05 0.87 0.66 94 1012.1
20260903203051 71 114 1.0 4.0 0.07 0.87 0.66 94 1012.7
20260903201550 71 355 2.0 5.0 0.08 0.86 0.65 94 1014.2
20260903200050 70 331 1.0 9.0 0.07 0.83 0.62 93 1014.8